{"data":{"norad_id":58545,"epoch":"2026-05-25T03:58:33.024864Z","epoch_age_seconds":60606,"freshness":"FRESH","line1":"1 58545U 23192Q   26145.16566001  .00002525  00000+0  85855-4 0  9995","line2":"2 58545  53.1604  66.8483 0001455  99.8828 260.2339 15.34398003137701","mean_motion":15.34398003,"eccentricity":0.0001455,"inclination_deg":53.1604,"raan_deg":66.8483,"arg_perigee_deg":99.8828,"mean_anomaly_deg":260.2339,"bstar":8.5855e-5,"rev_number":13770,"period_min":93.84788022303,"perigee_km":461.71383259982,"apogee_km":463.70451883696,"semimajor_km":6840.8461757184,"source":"CELESTRAK","updated_at":"2026-05-25T13:38:18.663311Z"}}